Weather History for KFLG - October, 2013

Change the Weather History Date:

Saturday, October 5, 2013

  Actual Average Record
Temperature  
Mean Temperature 43 °F 50 °F  
Max Temperature 55 °F 66 °F 80 °F (1975)
Min Temperature 30 °F 35 °F 14 °F (1969)
Degree Days  
Heating Degree Days 22 15  
Month to date heating degree days 89 69  
Since 1 July heating degree days 383 386  
Cooling Degree Days 0 0  
Month to date cooling degree days 0 0  
Year to date cooling degree days 148 117  
Moisture  
Dew Point 15 °F    
Average Humidity 33    
Maximum Humidity 49    
Minimum Humidity 17    
Precipitation  
Precipitation 0.00 in 0.06 in 1.80 in (1940)
Month to date precipitation 0.00 0.30  
Year to date precipitation 20.93 16.87  
Snow  
Snow 0.00 in 0.00 in 3.60 in (1912)
Month to date snowfall 0.0 0.1  
Since 1 July snowfall T 0.1  
Snow Depth 0.00 in    
Sea Level Pressure  
Sea Level Pressure 30.24 in    
Wind  
Wind Speed 15 mph (ENE)    
Max Wind Speed 29 mph    
Max Gust Speed 37 mph    
Visibility 10 miles    
Events      
T = Trace of Precipitation, MM = Missing Value Source: NWS Daily Summary

Daily Weather History Graph

Daily Weather History Graph

Search for Another Location

Airport or City:

Trip Planner

Search our weather history database for the weather conditions in past years. The results will help you decide how hot, cold, wet, or windy it might be!

Date:

Astronomy

Oct. 05, 2013 Rise Set
Actual Time 6:24 AM MST 6:04 PM MST
Civil Twilight 5:59 AM MST 6:29 PM MST
Nautical Twilight 5:30 AM MST 6:59 PM MST
Astronomical Twilight 5:00 AM MST 7:28 PM MST
Moon 7:05 AM MST (10/5) 6:29 PM MST (10/5)
Length of Visible Light 12h 30m
Length of Day
11h 39m
New Moon, 1% of the Moon is Illuminated
Oct 5
New Moon
Oct 11
First Quarter
Oct 18
Full
Oct 26
Last Quarter
Nov 3
New

Hourly Weather History & Observations

Time (MST) Temp. Windchill Dew Point Humidity Pressure Visibility Wind Dir Wind Speed Gust Speed Precip Events Conditions
12:57 AM 36.0 °F 27.5 °F 12.9 °F 39% 30.20 in 10.0 mi ENE 12.7 mph - N/A   Clear
1:57 AM 35.1 °F 26.4 °F 14.0 °F 42% 30.20 in 10.0 mi ENE 12.7 mph - N/A   Clear
2:57 AM 36.0 °F 28.0 °F 12.9 °F 39% 30.19 in 10.0 mi East 11.5 mph - N/A   Clear
3:57 AM 34.0 °F 25.5 °F 14.0 °F 44% 30.21 in 10.0 mi ENE 11.5 mph - N/A   Clear
4:57 AM 33.1 °F 24.9 °F 15.1 °F 48% 30.21 in 10.0 mi ENE 10.4 mph - N/A   Clear
5:57 AM 32.0 °F 24.8 °F 15.1 °F 50% 30.25 in 10.0 mi East 8.1 mph - N/A   Clear
6:57 AM 33.1 °F 24.4 °F 16.0 °F 50% 30.27 in 10.0 mi ENE 11.5 mph - N/A   Clear
7:57 AM 39.0 °F 31.4 °F 18.0 °F 43% 30.29 in 10.0 mi ENE 12.7 mph - N/A   Clear
8:57 AM 42.1 °F 35.2 °F 19.0 °F 40% 30.29 in 10.0 mi NE 12.7 mph 20.7 mph N/A   Clear
9:57 AM 45.0 °F 36.6 °F 18.0 °F 34% 30.29 in 10.0 mi NE 21.9 mph 26.5 mph N/A   Clear
10:57 AM 46.0 °F 39.3 °F 17.1 °F 31% 30.29 in 10.0 mi ENE 16.1 mph 29.9 mph N/A   Clear
11:57 AM 48.9 °F - 18.0 °F 29% 30.27 in 10.0 mi ENE 17.3 mph 25.3 mph N/A   Clear
12:57 PM 51.1 °F - 18.0 °F 27% 30.25 in 10.0 mi ENE 16.1 mph 31.1 mph N/A   Clear
1:57 PM 53.1 °F - 18.0 °F 25% 30.23 in 10.0 mi ENE 19.6 mph 27.6 mph N/A   Clear
2:57 PM 54.0 °F - 18.0 °F 24% 30.21 in 10.0 mi ENE 17.3 mph 27.6 mph N/A   Clear
3:57 PM 54.0 °F - 19.0 °F 25% 30.21 in 10.0 mi ENE 20.7 mph 26.5 mph N/A   Clear
4:57 PM 51.1 °F - 19.0 °F 28% 30.23 in 10.0 mi ENE 17.3 mph 26.5 mph N/A   Clear
5:57 PM 48.0 °F - 19.0 °F 32% 30.26 in 10.0 mi ENE 12.7 mph 23.0 mph N/A   Clear
6:57 PM 46.0 °F 39.9 °F 18.0 °F 33% 30.27 in 10.0 mi ENE 13.8 mph 24.2 mph N/A   Clear
7:57 PM 45.0 °F 38.2 °F 18.0 °F 34% 30.27 in 10.0 mi East 15.0 mph 21.9 mph N/A   Clear
8:57 PM 46.0 °F 39.6 °F 15.1 °F 29% 30.26 in 10.0 mi ENE 15.0 mph 20.7 mph N/A   Clear
9:57 PM 46.0 °F 39.9 °F 15.1 °F 29% 30.23 in 10.0 mi ENE 13.8 mph 23.0 mph N/A   Clear
10:57 PM 46.0 °F 38.0 °F 3.0 °F 17% 30.22 in 10.0 mi ENE 21.9 mph 29.9 mph N/A   Clear
11:57 PM 46.0 °F 38.8 °F -0.0 °F 15% 30.19 in 10.0 mi ENE 18.4 mph 31.1 mph N/A   Clear